Year,Month,Day,Hour,Minute,Value (Times are PST for temperature in C)
2012,02,19,10,03,5.60
2012,02,19,10,05,5.60
2012,02,19,10,07,5.60
2012,02,19,10,11,5.70
2012,02,19,10,12,5.70
2012,02,19,10,13,5.70
2012,02,19,10,14,5.70
2012,02,19,10,15,5.70
2012,02,19,10,16,5.70
2012,02,19,10,17,5.70
2012,02,19,10,18,5.70
2012,02,19,10,19,5.70
2012,02,19,10,20,5.70
2012,02,19,10,21,5.70
2012,02,19,10,22,5.70
2012,02,19,10,23,5.70
2012,02,19,10,24,5.70
2012,02,19,10,25,5.70
2012,02,19,10,26,5.70
2012,02,19,10,27,5.70
2012,02,19,10,28,5.80
2012,02,19,10,29,5.80
2012,02,19,10,30,5.80
2012,02,19,10,42,5.80
2012,02,19,10,43,5.80
2012,02,19,10,44,5.90
2012,02,19,10,45,5.90
2012,02,19,10,46,5.90
2012,02,19,10,47,5.90
2012,02,19,10,48,5.90
2012,02,19,10,49,5.90
2012,02,19,10,50,5.90
2012,02,19,10,51,5.90
2012,02,19,10,52,5.90
2012,02,19,10,53,5.90
2012,02,19,10,54,5.90
2012,02,19,10,55,5.90
2012,02,19,10,56,5.90
2012,02,19,10,57,6.00
2012,02,19,10,58,6.00
2012,02,19,10,59,6.00
2012,02,19,11,00,6.00
2012,02,19,11,01,6.00
2012,02,19,11,02,6.00
2012,02,19,11,03,6.00
2012,02,19,11,04,5.90
2012,02,19,11,05,6.00
2012,02,19,11,06,6.00
2012,02,19,11,07,6.10
2012,02,19,11,08,6.10
2012,02,19,11,10,6.10
2012,02,19,11,11,6.10
2012,02,19,11,12,6.10
2012,02,19,11,13,6.10
2012,02,19,11,14,6.10
2012,02,19,11,15,6.10
2012,02,19,11,16,6.10
2012,02,19,11,17,6.10
2012,02,19,11,18,6.20
2012,02,19,11,19,6.20
2012,02,19,11,20,6.20
2012,02,19,11,21,6.20
2012,02,19,11,22,6.20
2012,02,19,11,23,6.20
2012,02,19,11,24,6.20
2012,02,19,11,25,6.20
2012,02,19,11,27,6.20
2012,02,19,11,28,6.20
2012,02,19,11,29,6.20
2012,02,19,11,30,6.30
2012,02,19,11,31,6.30
2012,02,19,11,32,6.30
2012,02,19,11,33,6.30
2012,02,19,11,34,6.30
2012,02,19,11,35,6.30
2012,02,19,11,36,6.40
2012,02,19,11,37,6.40
2012,02,19,11,38,6.40
2012,02,19,11,39,6.40
2012,02,19,11,40,6.40
2012,02,19,11,41,6.40
2012,02,19,11,43,6.40
2012,02,19,11,44,6.40
2012,02,19,11,45,6.40
2012,02,19,11,46,6.40
2012,02,19,11,47,6.40
2012,02,19,11,48,6.40
2012,02,19,11,49,6.40
2012,02,19,11,50,6.40
2012,02,19,11,51,6.30
2012,02,19,11,52,6.30
2012,02,19,11,53,6.30
2012,02,19,11,54,6.30
2012,02,19,11,55,6.30
2012,02,19,11,56,6.30
2012,02,19,11,57,6.30
2012,02,19,11,58,6.20
2012,02,19,11,59,6.30
2012,02,19,12,00,6.30
2012,02,19,12,01,6.20
2012,02,19,12,02,6.10
2012,02,19,12,03,6.00
2012,02,19,12,04,5.90
2012,02,19,12,05,5.90
2012,02,19,12,07,5.80
2012,02,19,12,10,5.90
2012,02,19,12,11,5.90
2012,02,19,12,12,5.90
2012,02,19,12,13,5.90
2012,02,19,12,14,5.90
2012,02,19,12,15,5.90
2012,02,19,12,16,5.90
2012,02,19,12,17,5.90
2012,02,19,12,18,5.90
2012,02,19,12,19,6.00
2012,02,19,12,20,6.00
2012,02,19,12,21,6.10
2012,02,19,12,22,6.10
2012,02,19,12,23,6.10
2012,02,19,12,24,6.10
2012,02,19,12,25,6.20
2012,02,19,12,26,6.20
2012,02,19,12,27,6.10
2012,02,19,12,28,6.10
2012,02,19,12,29,6.10
2012,02,19,12,30,6.10
2012,02,19,12,31,6.20
2012,02,19,12,32,6.20
2012,02,19,12,33,6.20
2012,02,19,12,34,6.30
2012,02,19,12,35,6.30
2012,02,19,12,36,6.30
2012,02,19,12,37,6.30
2012,02,19,12,38,6.40
2012,02,19,12,39,6.40
2012,02,19,12,40,6.40
2012,02,19,12,41,6.40
2012,02,19,12,42,6.50
2012,02,19,12,43,6.50
2012,02,19,12,44,6.50
2012,02,19,12,45,6.50
2012,02,19,12,46,6.60
2012,02,19,12,47,6.60
2012,02,19,12,48,6.60
2012,02,19,12,49,6.60
2012,02,19,12,50,6.60
2012,02,19,12,51,6.60
2012,02,19,12,52,6.60
2012,02,19,12,53,6.60
2012,02,19,12,54,6.60
2012,02,19,12,55,6.60
2012,02,19,12,56,6.60
2012,02,19,12,57,6.60
2012,02,19,12,58,6.60
2012,02,19,12,59,6.60
2012,02,19,13,00,6.60
2012,02,19,13,01,6.60
2012,02,19,13,02,6.60
2012,02,19,13,03,6.70
2012,02,19,13,04,6.60
2012,02,19,13,05,6.60
2012,02,19,13,06,6.60
2012,02,19,13,07,6.70
2012,02,19,13,08,6.70
2012,02,19,13,09,6.70
2012,02,19,13,10,6.70
2012,02,19,13,11,6.70
2012,02,19,13,12,6.70
2012,02,19,13,13,6.70
2012,02,19,13,14,6.70
2012,02,19,13,15,6.70
2012,02,19,13,16,6.70
2012,02,19,13,17,6.70
2012,02,19,13,18,6.70
2012,02,19,13,19,6.80
2012,02,19,13,20,6.80
2012,02,19,13,21,6.80
2012,02,19,13,22,6.80
2012,02,19,13,23,6.90
2012,02,19,13,24,6.90
2012,02,19,13,25,6.90
2012,02,19,13,26,6.90
2012,02,19,13,27,6.90
2012,02,19,13,28,6.90
2012,02,19,13,29,6.80
2012,02,19,13,30,6.80
2012,02,19,13,31,6.80
2012,02,19,13,32,6.70
2012,02,19,13,33,6.70
2012,02,19,13,34,6.70
2012,02,19,13,35,6.70
2012,02,19,13,36,6.70
2012,02,19,13,37,6.60
2012,02,19,13,38,6.60
2012,02,19,13,39,6.60
2012,02,19,13,40,6.60
2012,02,19,13,41,6.60
2012,02,19,13,42,6.60
2012,02,19,13,43,6.60
2012,02,19,13,44,6.50
2012,02,19,13,45,6.50
2012,02,19,13,46,6.50
2012,02,19,13,47,6.50
2012,02,19,13,48,6.50
2012,02,19,13,49,6.50
2012,02,19,13,50,6.50
2012,02,19,13,51,6.50
2012,02,19,13,52,6.40
2012,02,19,13,53,6.40
2012,02,19,13,54,6.40
2012,02,19,13,55,6.40
2012,02,19,13,56,6.40
2012,02,19,13,57,6.40
2012,02,19,13,58,6.40
2012,02,19,13,59,6.50
2012,02,19,14,00,6.40
2012,02,19,14,01,6.40
2012,02,19,14,02,6.40
2012,02,19,14,03,6.40
2012,02,19,14,04,6.30
2012,02,19,14,05,6.40
2012,02,19,14,06,6.40
2012,02,19,14,07,6.40
2012,02,19,14,08,6.40
2012,02,19,14,09,6.40
2012,02,19,14,10,6.30
2012,02,19,14,11,6.30
2012,02,19,14,12,6.30
2012,02,19,14,13,6.30
2012,02,19,14,14,6.30
2012,02,19,14,15,6.30
2012,02,19,14,16,6.30
2012,02,19,14,17,6.20
2012,02,19,14,18,6.20
2012,02,19,14,19,6.20
2012,02,19,14,20,6.20
2012,02,19,14,22,6.20
2012,02,19,14,23,6.20
2012,02,19,14,24,6.20
2012,02,19,14,25,6.20
2012,02,19,14,26,6.20
2012,02,19,14,27,6.20
2012,02,19,14,28,6.20
2012,02,19,14,29,6.20
2012,02,19,14,30,6.10
2012,02,19,14,31,6.10
2012,02,19,14,32,6.10
2012,02,19,14,33,6.10
2012,02,19,14,34,6.10
2012,02,19,14,35,6.10
2012,02,19,14,36,6.10
2012,02,19,14,37,6.10
2012,02,19,14,38,6.10
2012,02,19,14,39,6.10
2012,02,19,14,40,6.10
2012,02,19,14,41,6.10
2012,02,19,14,42,6.20
2012,02,19,14,43,6.20
2012,02,19,14,44,6.20
2012,02,19,14,45,6.20
2012,02,19,14,46,6.20
2012,02,19,14,47,6.20
2012,02,19,14,48,6.20
2012,02,19,14,49,6.20
2012,02,19,14,50,6.20
2012,02,19,14,51,6.20
2012,02,19,14,52,6.20
2012,02,19,14,53,6.20
2012,02,19,14,54,6.20
2012,02,19,14,55,6.30
2012,02,19,14,56,6.30
2012,02,19,14,57,6.30
2012,02,19,14,58,6.30
2012,02,19,14,59,6.30
2012,02,19,15,00,6.30
2012,02,19,15,01,6.20
2012,02,19,15,02,6.20
2012,02,19,15,03,6.20
2012,02,19,15,04,6.20
2012,02,19,15,05,6.20
2012,02,19,15,06,6.20
2012,02,19,15,07,6.20
2012,02,19,15,08,6.20
2012,02,19,15,09,6.20
2012,02,19,15,10,6.10
2012,02,19,15,11,6.10
2012,02,19,15,12,6.10
2012,02,19,15,13,6.10
2012,02,19,15,14,6.20
2012,02,19,15,15,6.10
2012,02,19,15,16,6.10
2012,02,19,15,17,6.10
2012,02,19,15,18,6.10
2012,02,19,15,19,6.10
2012,02,19,15,20,6.10
2012,02,19,15,21,6.10
2012,02,19,15,22,6.10
2012,02,19,15,23,6.10
2012,02,19,15,24,6.10
2012,02,19,15,25,6.10
2012,02,19,15,26,6.10
2012,02,19,15,27,6.10
2012,02,19,15,28,6.10
2012,02,19,15,29,6.10
2012,02,19,15,30,6.10
2012,02,19,15,31,6.10
2012,02,19,15,32,6.10
2012,02,19,15,33,6.10
2012,02,19,15,34,6.10
2012,02,19,15,35,6.10
2012,02,19,15,36,6.10
2012,02,19,15,37,6.10
2012,02,19,15,38,6.10
2012,02,19,15,39,6.10
2012,02,19,15,40,6.10
2012,02,19,15,41,6.10
2012,02,19,15,42,6.10
2012,02,19,15,43,6.20
2012,02,19,15,44,6.20
2012,02,19,15,45,6.10
2012,02,19,15,46,6.10
2012,02,19,15,47,6.10
2012,02,19,15,48,6.10
2012,02,19,15,49,6.10
2012,02,19,15,50,6.10
2012,02,19,15,51,6.10
2012,02,19,15,52,6.10
2012,02,19,15,53,6.00
2012,02,19,15,54,6.00
2012,02,19,15,55,5.90
2012,02,19,15,56,5.90
2012,02,19,15,57,5.90
2012,02,19,15,58,5.90
2012,02,19,15,59,5.90
2012,02,19,16,00,5.90
2012,02,19,16,01,5.90
2012,02,19,16,02,5.90
2012,02,19,16,03,5.90
2012,02,19,16,04,5.90
2012,02,19,16,05,6.00
2012,02,19,16,06,6.00
2012,02,19,16,07,6.00
2012,02,19,16,08,6.00
2012,02,19,16,09,6.00
2012,02,19,16,10,6.00
2012,02,19,16,11,6.00
2012,02,19,16,12,6.00
2012,02,19,16,13,6.00
2012,02,19,16,14,6.00
2012,02,19,16,15,6.00
2012,02,19,16,16,6.00
2012,02,19,16,17,6.00
2012,02,19,16,18,6.00
2012,02,19,16,19,6.10
2012,02,19,16,20,6.10
2012,02,19,16,21,6.10
2012,02,19,16,22,6.10
2012,02,19,16,23,6.10
2012,02,19,16,24,6.10
2012,02,19,16,25,6.10
2012,02,19,16,26,6.10
2012,02,19,16,27,6.10
2012,02,19,16,28,6.10
2012,02,19,16,29,6.10
2012,02,19,16,30,6.10
2012,02,19,16,31,6.10
2012,02,19,16,32,6.10
2012,02,19,16,33,6.10
2012,02,19,16,34,6.10
2012,02,19,16,35,6.10
2012,02,19,16,36,6.10
2012,02,19,16,37,6.10
2012,02,19,16,38,6.10
2012,02,19,16,39,6.10
2012,02,19,16,40,6.10
2012,02,19,16,41,6.10
2012,02,19,16,42,6.10
2012,02,19,16,43,6.10
2012,02,19,16,44,6.10
2012,02,19,16,45,6.10
2012,02,19,16,46,6.10
2012,02,19,16,47,6.10
2012,02,19,16,48,6.10
2012,02,19,16,49,6.10
2012,02,19,16,50,6.10
2012,02,19,16,51,6.10
2012,02,19,16,52,6.10
2012,02,19,16,53,6.10
2012,02,19,16,54,6.10
2012,02,19,16,55,6.10
2012,02,19,16,56,6.10
2012,02,19,16,57,6.10
2012,02,19,16,58,6.10
2012,02,19,16,59,6.10
2012,02,19,17,00,6.10
2012,02,19,17,01,6.10
2012,02,19,17,02,6.10
2012,02,19,17,03,6.10
2012,02,19,17,04,6.10
2012,02,19,17,05,6.10
2012,02,19,17,06,6.10
2012,02,19,17,07,6.10
2012,02,19,17,08,6.10
2012,02,19,17,09,6.10
2012,02,19,17,10,6.10
2012,02,19,17,11,6.10
2012,02,19,17,12,6.10
2012,02,19,17,13,6.10
2012,02,19,17,14,6.10
2012,02,19,17,15,6.10
2012,02,19,17,16,6.10
2012,02,19,17,17,6.10
2012,02,19,17,18,6.10
2012,02,19,17,19,6.10
2012,02,19,17,20,6.10
2012,02,19,17,21,6.10
2012,02,19,17,22,6.10
2012,02,19,17,23,6.10
2012,02,19,17,24,6.10
2012,02,19,17,25,6.10
2012,02,19,17,26,6.10
2012,02,19,17,27,6.10
2012,02,19,17,28,6.10
2012,02,19,17,29,6.10
2012,02,19,17,30,6.10
2012,02,19,17,31,6.10
2012,02,19,17,32,6.10
2012,02,19,17,33,6.10
2012,02,19,17,34,6.10
2012,02,19,17,35,6.10
2012,02,19,17,36,6.10
2012,02,19,17,37,6.10
2012,02,19,17,38,6.10
2012,02,19,17,39,6.10
2012,02,19,17,40,6.10
2012,02,19,17,41,6.00
2012,02,19,17,42,6.00
2012,02,19,17,43,6.00
2012,02,19,17,44,6.00
2012,02,19,17,45,5.90
2012,02,19,17,46,5.90
2012,02,19,17,47,5.90
2012,02,19,17,48,5.90
2012,02,19,17,49,5.90
2012,02,19,17,50,5.90
2012,02,19,17,51,5.90
2012,02,19,17,52,5.90
2012,02,19,17,53,5.90
2012,02,19,17,54,5.90
2012,02,19,17,55,5.90
2012,02,19,17,56,5.90
2012,02,19,17,57,5.90
2012,02,19,17,58,5.90
2012,02,19,17,59,5.90
2012,02,19,18,00,5.90
2012,02,19,18,01,5.90
2012,02,19,18,02,5.90
2012,02,19,18,03,5.90
2012,02,19,18,04,5.90
2012,02,19,18,05,5.90
2012,02,19,18,06,5.80
2012,02,19,18,07,5.80
2012,02,19,18,08,5.80
2012,02,19,18,09,5.80
2012,02,19,18,10,5.80
2012,02,19,18,11,5.80
2012,02,19,18,12,5.80
2012,02,19,18,13,5.80
2012,02,19,18,14,5.80
2012,02,19,18,15,5.80
2012,02,19,18,16,5.80
2012,02,19,18,17,5.80
2012,02,19,18,18,5.70
2012,02,19,18,19,5.70
2012,02,19,18,20,5.70
2012,02,19,18,21,5.70
2012,02,19,18,22,5.70
2012,02,19,18,23,5.70
2012,02,19,18,24,5.70
2012,02,19,18,25,5.70
2012,02,19,18,26,5.70
2012,02,19,18,27,5.70
2012,02,19,18,28,5.80
2012,02,19,18,29,5.80
2012,02,19,18,30,5.80
2012,02,19,18,31,5.80
2012,02,19,18,32,5.80
2012,02,19,18,33,5.80
2012,02,19,18,34,5.80
2012,02,19,18,35,5.80
2012,02,19,18,36,5.80
2012,02,19,18,37,5.80
2012,02,19,18,38,5.80
2012,02,19,18,39,5.80
2012,02,19,18,40,5.80
2012,02,19,18,41,5.80
2012,02,19,18,42,5.80
2012,02,19,18,43,5.80
2012,02,19,18,44,5.80
2012,02,19,18,45,5.80
2012,02,19,18,46,5.80
2012,02,19,18,47,5.80
2012,02,19,18,48,5.80
2012,02,19,18,49,5.80
2012,02,19,18,50,5.80
2012,02,19,18,51,5.80
2012,02,19,18,52,5.80
2012,02,19,18,53,5.80
2012,02,19,18,54,5.80
2012,02,19,18,55,5.80
2012,02,19,18,56,5.80
2012,02,19,18,57,5.70
2012,02,19,18,58,5.70
2012,02,19,18,59,5.70
2012,02,19,19,00,5.70
2012,02,19,19,01,5.70
2012,02,19,19,02,5.70
2012,02,19,19,03,5.70
2012,02,19,19,04,5.70
2012,02,19,19,05,5.70
2012,02,19,19,06,5.70
2012,02,19,19,07,5.70
2012,02,19,19,08,5.70
2012,02,19,19,09,5.70
2012,02,19,19,10,5.70
2012,02,19,19,11,5.70
2012,02,19,19,12,5.70
2012,02,19,19,13,5.70
2012,02,19,19,14,5.70
2012,02,19,19,15,5.70
2012,02,19,19,16,5.70
2012,02,19,19,17,5.70
2012,02,19,19,18,5.70
2012,02,19,19,19,5.70
2012,02,19,19,20,5.70
2012,02,19,19,21,5.70
2012,02,19,19,22,5.70
2012,02,19,19,23,5.70
2012,02,19,19,24,5.70
2012,02,19,19,25,5.70
2012,02,19,19,26,5.70
2012,02,19,19,27,5.70
2012,02,19,19,28,5.70
2012,02,19,19,29,5.70
2012,02,19,19,30,5.70
2012,02,19,19,31,5.80
2012,02,19,19,32,5.70
2012,02,19,19,33,5.70
2012,02,19,19,34,5.70
2012,02,19,19,35,5.70
2012,02,19,19,36,5.70
2012,02,19,19,37,5.70
2012,02,19,19,38,5.60
2012,02,19,19,39,5.60
2012,02,19,19,40,5.60
2012,02,19,19,41,5.60
2012,02,19,19,42,5.60
2012,02,19,19,43,5.60
2012,02,19,19,44,5.60
2012,02,19,19,45,5.60
2012,02,19,22,50,5.10
2012,02,19,22,51,5.10
2012,02,19,22,52,5.10
2012,02,19,22,53,5.10
2012,02,19,22,54,5.10
2012,02,19,22,55,5.10
2012,02,19,22,56,5.10
2012,02,19,22,57,5.10
2012,02,19,22,58,5.10
2012,02,19,22,59,5.10
2012,02,19,23,00,5.10
2012,02,19,23,01,5.10
2012,02,19,23,02,5.10
2012,02,19,23,03,5.10
2012,02,19,23,04,5.10
2012,02,19,23,05,5.10
2012,02,19,23,06,5.10
2012,02,19,23,07,5.10
2012,02,19,23,08,5.10
2012,02,19,23,09,5.10
2012,02,19,23,10,5.10
2012,02,19,23,11,5.10
2012,02,19,23,12,5.10
2012,02,19,23,13,5.10
2012,02,19,23,14,5.10
2012,02,19,23,15,5.10
2012,02,19,23,16,5.10
2012,02,19,23,17,5.10
2012,02,19,23,18,5.10
2012,02,19,23,19,5.10
2012,02,19,23,20,5.10
2012,02,19,23,21,5.20
2012,02,19,23,22,5.20
2012,02,19,23,23,5.20
2012,02,19,23,24,5.20
2012,02,19,23,25,5.20
2012,02,19,23,26,5.20
2012,02,19,23,27,5.20
2012,02,19,23,28,5.20
2012,02,19,23,29,5.20
2012,02,19,23,30,5.30
2012,02,19,23,31,5.30
2012,02,19,23,32,5.30
2012,02,19,23,33,5.30
2012,02,19,23,34,5.30
2012,02,19,23,35,5.30
2012,02,19,23,36,5.20
2012,02,19,23,37,5.20
2012,02,19,23,38,5.20
2012,02,19,23,39,5.30
2012,02,19,23,40,5.30
2012,02,19,23,41,5.30
2012,02,19,23,42,5.30
2012,02,19,23,43,5.30
2012,02,19,23,44,5.30
2012,02,19,23,45,5.30
2012,02,19,23,46,5.30
2012,02,19,23,47,5.30
2012,02,19,23,48,5.30
2012,02,19,23,49,5.30
2012,02,19,23,50,5.30
2012,02,19,23,51,5.30
2012,02,19,23,52,5.30
2012,02,19,23,53,5.30
2012,02,19,23,54,5.40
2012,02,19,23,55,5.40
2012,02,19,23,56,5.40
2012,02,19,23,57,5.40
2012,02,19,23,58,5.40
2012,02,19,23,59,5.40
